Location: São Paulo
(23.5507°S, 46.6334°W)
Time: 01:08:01
(UTC-03:00)

Hubble Space Telescope - Pass Details

Date: 31 July 2021
Orbit: 535 x 539 km, 28.5° (Epoch: 23 September)

Event Time Altitude Azimuth Distance (km) Brightness Sun altitude
Exits shadow 06:00:30 13° 251° (WSW) 1,587 2.5 -9.9°
Maximum altitude 06:03:52 41° 183° (S) 786 1.5 -9.2°
Drops below altitude 10° 06:07:50 10° 111° (ESE) 1,796 4.3 -8.3°
Sets 06:10:11 0° 104° (ESE) 2,689 5.5 -7.8°
